Lapse_Rate
9.6 9.6 9.5 9.6 9.5 9.5 9.4 9.4 9.5 9.5 9.6 9.7 9.6 9.6 9.3 8.8 8.2 6.9 6.0 6.5 7.0 6.7 6.6 6.3 6.1 6.1 7.5 8.1 8.0 8.2 6.9 7.7 8.6 8.0 8.4 8.3 7.7 7.4 6.5 6.6 6.9 6.5 6.5 7.1 7.4 7.3 7.3
9.6 9.5 9.5 9.5 9.5 9.5 9.5 9.4 9.3 9.3 9.5 9.5 9.6 9.6 9.5 9.1 8.7 7.7 6.8 6.2 6.8 7.2 6.7 6.3 6.2 6.2 8.5 6.6 8.8 8.5 9.1 9.6 9.6 9.1 8.1 8.3 7.7 7.9 7.1 6.7 6.6 7.0 6.9 6.9 7.2 7.2 7.3
9.4 9.5 9.2 9.4 9.6 9.5 9.3 9.3 9.4 9.4 9.4 9.5 9.6 9.4 9.6 9.0 8.7 8.3 7.2 6.5 6.4 7.0 7.2 6.7 6.5 7.7 8.3 7.8 9.7 9.3 8.8 9.5 9.5 9.2 8.2 8.6 8.6 7.8 7.6 6.5 7.4 7.1 6.5 6.5 6.7 7.0 6.6
9.2 9.1 9.1 9.1 9.4 9.3 8.8 8.5 9.0 9.3 9.3 9.5 9.5 9.3 9.4 9.1 8.5 8.2 7.8 6.6 6.0 6.5 7.5 6.9 6.9 9.3 7.6 8.5 9.3 8.5 9.7 9.3 9.6 9.6 9.0 9.1 8.9 8.0 7.4 7.6 7.0 6.5 6.5 6.5 6.5 6.5 6.9
9.1 9.3 9.3 9.2 9.1 9.2 9.3 8.9 9.2 9.2 9.3 9.3 9.4 9.4 9.4 8.6 8.0 8.0 8.0 6.9 5.8 5.9 7.6 7.5 8.2 8.7 7.2 7.4 8.1 9.4 9.7 8.7 9.1 9.2 9.1 9.1 8.4 7.4 7.3 6.5 6.5 6.5 6.5 6.5 6.5 6.5 6.5
9.4 9.3 9.3 9.1 9.2 9.2 9.3 9.2 9.0 9.3 9.1 8.6 9.3 8.3 8.6 8.5 7.8 7.8 7.9 6.9 5.8 5.9 7.6 8.8 9.2 7.7 8.3 7.7 8.8 9.2 9.7 9.2 8.5 8.3 8.0 7.8 7.4 6.5 6.5 6.5 6.5 6.5 6.5 6.5 6.5 6.5 6.5
9.4 9.1 9.2 9.1 9.2 9.1 9.1 8.7 8.6 8.8 9.2 9.2 8.6 8.4 8.1 8.0 8.2 7.8 7.6 6.6 6.8 6.3 6.3 7.3 7.5 7.5 8.0 8.9 9.4 8.7 9.3 8.7 8.4 7.7 6.5 6.9 6.5 6.5 6.5 6.5 6.5 6.5 6.5 6.5 6.5 6.5 6.5
9.1 9.2 9.3 9.2 9.1 8.8 8.8 8.4 8.6 8.8 9.2 8.7 8.7 8.8 8.3 8.2 7.7 8.1 7.7 7.2 6.8 7.2 6.5 8.2 8.2 8.1 8.6 8.8 7.5 8.2 9.2 7.4 7.0 6.5 6.5 6.5 6.5 6.5 6.5 6.5 6.5 6.5 6.5 6.5 6.5 6.5 6.5
9.2 9.4 9.2 9.3 9.0 9.0 8.7 8.6 8.5 9.2 8.5 8.6 9.2 9.4 7.9 8.0 7.8 8.1 8.4 7.6 6.6 5.7 6.6 7.3 8.0 7.8 8.0 8.4 7.2 7.5 8.4 7.6 6.5 6.5 6.5 6.5 6.5 6.5 6.5 6.5 6.5 6.5 6.5 6.5 6.5 6.5 6.5
9.4 9.2 9.2 8.6 8.4 8.4 9.1 9.0 8.9 8.8 8.5 9.4 9.5 9.2 7.4 7.9 7.6 9.1 8.5 7.3 6.7 4.8 6.5 6.5 6.8 7.5 8.0 8.0 6.7 8.5 8.7 7.6 6.6 6.5 6.5 6.5 6.6 6.5 6.5 6.5 6.5 6.5 6.5 6.5 6.5 6.5 6.5
9.5 9.2 8.5 8.5 8.5 9.1 8.8 9.1 9.0 8.8 9.5 9.3 8.5 8.1 8.0 7.7 8.1 8.4 8.1 6.5 6.0 6.0 6.5 6.5 6.7 8.8 8.2 7.1 7.3 7.3 8.7 7.6 6.5 6.5 6.5 6.5 6.5 6.5 6.5 6.5 6.5 6.5 6.5 6.5 6.5 6.5 6.5
9.3 8.8 8.3 8.4 8.5 9.0 9.1 8.6 8.8 9.2 9.4 8.6 8.2 7.7 7.1 6.8 7.2 9.1 8.3 5.9 6.8 6.5 6.5 6.5 6.8 6.5 6.5 6.8 6.9 7.4 7.3 8.0 7.5 6.5 6.5 6.5 7.0 6.5 6.5 6.5 6.5 6.5 6.5 6.5 6.5 6.5 6.5
9.3 8.4 8.3 8.7 9.1 8.5 8.8 8.6 9.3 9.4 8.9 8.5 7.6 7.3 7.6 7.5 8.2 9.5 7.9 6.4 6.5 6.5 6.5 6.5 6.5 6.5 6.5 6.5 6.5 6.5 6.5 6.5 6.5 6.5 6.5 6.5 6.5 6.5 6.7 6.5 6.5 6.5 6.5 6.5 6.5 6.5 6.5
9.2 8.3 8.4 8.4 8.5 9.2 8.6 8.7 9.3 9.3 9.2 8.4 7.1 7.1 8.0 8.6 9.3 8.7 6.6 6.5 6.5 6.5 6.5 6.5 6.5 6.5 6.5 6.5 6.5 6.5 6.5 6.5 6.5 6.5 6.5 6.5 6.5 6.5 6.5 6.5 6.5 6.5 6.5 6.5 6.5 6.5 6.5
9.1 9.2 8.5 8.6 9.1 8.6 9.3 9.0 9.4 9.4 8.8 8.1 7.4 7.3 7.3 8.0 9.1 8.3 6.8 6.5 6.5 6.5 6.5 6.5 6.5 6.5 6.5 6.5 6.5 6.5 6.5 6.5 6.5 6.5 6.5 6.5 6.5 6.5 6.5 6.5 6.5 6.5 6.5 6.5 6.5 6.5 6.5
9.1 8.6 8.5 9.0 8.8 8.8 9.0 9.2 9.5 9.1 8.8 7.9 6.6 7.0 7.2 7.9 8.5 7.0 6.5 6.5 6.5 6.5 6.5 6.5 6.5 6.5 6.5 6.5 6.5 6.5 6.5 6.5 6.5 6.5 6.5 6.5 6.5 6.5 6.5 6.6 6.5 6.5 6.5 6.5 6.5 6.5 6.5
8.2 8.3 8.4 9.2 8.4 8.8 9.2 9.3 9.4 9.0 7.9 7.1 6.0 7.2 7.2 7.8 8.4 6.8 6.5 6.5 6.5 6.9 6.8 6.5 6.5 6.5 6.5 6.5 6.5 6.5 6.5 6.5 6.5 6.5 6.4 6.5 6.5 6.5 6.5 6.5 6.5 6.5 6.5 6.5 6.5 6.5 6.5
8.5 8.4 8.5 9.2 8.6 9.2 9.2 9.3 9.1 8.7 7.5 6.8 6.9 6.5 7.1 9.0 6.5 6.6 6.5 6.5 6.6 6.5 7.0 6.5 6.5 6.5 6.5 6.5 6.5 6.5 6.5 6.5 6.9 6.6 6.5 6.5 6.5 6.5 6.5 6.5 6.5 6.5 6.5 6.5 6.5 6.5 6.5
9.2 9.2 8.9 8.7 8.7 9.1 9.1 9.2 8.8 8.1 7.1 6.4 6.9 7.1 7.6 7.2 6.5 6.5 6.5 6.5 6.6 6.5 6.5 6.5 6.5 6.5 6.5 6.5 6.5 6.5 6.5 6.7 7.0 6.5 6.5 6.5 6.5 6.5 6.5 6.5 6.5 6.5 6.5 6.5 6.5 6.5 6.5
9.1 9.2 9.2 9.3 9.2 9.0 8.8 9.1 7.5 7.0 6.7 6.8 6.9 6.5 7.0 7.2 7.3 6.5 6.5 6.5 6.5 6.9 6.5 6.6 6.5 6.5 6.5 6.5 6.5 6.5 6.5 6.5 6.9 6.7 6.6 6.7 6.5 6.5 6.5 6.5 6.5 6.5 6.5 6.5 6.5 6.5 6.5
9.0 9.3 9.1 9.3 9.2 9.2 8.7 8.6 7.4 6.7 6.0 6.8 7.5 6.7 7.2 6.5 6.5 6.5 6.5 6.5 6.5 6.5 6.6 6.8 6.5 6.5 6.5 6.5 6.5 6.5 6.5 6.5 6.6 6.8 6.6 6.5 6.5 6.5 6.5 6.5 6.5 6.5 6.5 6.5 6.5 6.5 6.5
8.8 8.8 9.2 9.3 9.3 9.0 8.8 8.6 7.4 7.1 5.9 7.5 6.8 6.7 7.1 6.7 6.9 6.5 6.5 6.5 6.5 6.5 6.5 6.5 6.5 6.5 6.5 6.5 6.5 6.5 6.5 6.5 6.5 6.5 6.5 6.5 6.5 6.5 6.5 6.5 6.5 6.5 6.5 6.5 6.5 6.5 6.5
9.1 9.2 8.9 9.3 9.2 8.8 8.8 8.5 7.7 7.9 7.2 6.8 6.5 6.8 6.6 6.7 6.5 6.5 6.5 6.5 6.5 6.5 6.7 6.8 6.5 6.5 6.5 6.5 6.8 6.9 7.0 6.9 6.6 6.5 6.5 6.5 6.5 6.5 6.5 6.5 6.5 6.5 6.5 6.5 6.5 6.5 6.5
9.3 9.3 9.3 9.0 9.3 9.1 8.7 8.3 7.9 8.4 7.7 6.5 6.7 6.1 6.8 6.5 6.5 6.5 6.5 6.5 6.5 6.5 6.5 6.7 7.0 6.5 7.1 8.0 7.7 7.3 7.0 6.8 6.7 6.5 6.6 6.5 6.5 6.5 6.5 6.5 6.5 6.5 6.5 6.5 6.5 6.5 6.5
9.2 9.2 9.4 9.3 8.7 9.1 8.4 8.2 7.7 8.4 8.2 6.1 5.7 5.7 6.9 6.5 6.6 6.5 6.5 6.5 6.8 6.9 6.6 6.6 7.1 7.4 7.9 7.3 6.5 6.5 6.5 6.5 6.5 6.5 6.5 6.5 6.5 6.5 6.5 6.5 6.5 6.5 6.5 6.5 6.5 6.5 6.5
9.2 8.8 8.8 9.4 8.8 8.7 8.5 8.0 7.8 8.1 7.7 5.3 4.5 5.4 6.1 6.6 6.6 7.2 6.6 6.8 6.5 6.5 6.5 6.8 7.2 6.7 7.1 6.5 6.5 6.5 6.5 6.5 6.5 6.5 6.5 6.5 6.5 6.5 6.5 6.5 6.5 6.5 6.5 6.7 6.5 6.5 6.5
9.2 9.2 8.5 8.7 9.3 8.5 9.2 8.0 7.9 8.0 7.4 5.3 5.1 5.1 5.1 6.9 7.6 7.6 6.6 6.7 7.2 6.7 6.5 6.7 6.9 6.9 7.3 6.5 6.5 6.5 6.5 6.5 6.5 6.5 6.5 6.5 6.5 6.5 6.5 6.5 6.5 6.5 6.5 6.9 6.5 6.5 6.6
9.2 9.2 8.9 8.5 9.4 9.4 9.5 9.4 9.3 8.9 7.5 6.0 5.0 5.1 4.6 6.1 7.7 8.1 8.0 7.3 7.3 7.2 6.5 6.9 6.7 6.7 6.5 6.5 6.5 6.5 6.5 6.5 6.5 6.5 6.5 6.5 6.5 6.5 6.5 6.5 6.5 6.6 6.6 6.5 6.5 6.9 7.0
9.2 9.2 8.8 9.0 9.3 9.4 9.4 9.4 9.4 9.3 8.4 7.7 4.7 4.6 4.2 4.7 7.4 7.0 7.1 7.3 8.2 8.1 7.4 7.4 6.8 6.7 6.8 6.5 6.5 6.5 6.5 6.5 6.5 6.5 6.5 6.5 6.5 6.5 6.5 6.5 6.5 7.0 6.8 7.3 7.4 7.1 7.2
Wind_Speed
19 20 19 21 22 22 22 22 22 21 22 24 23 23 21 22 23 22 22 19 18 15 12 8 5 3 4 8 11 9 1 6 10 13 15 14 14 13 12 11 9 13 18 12 13 13 13
18 19 20 22 23 25 23 23 22 23 24 22 23 25 23 23 24 23 22 21 17 15 14 10 6 4 7 11 3 1 5 5 11 16 13 9 5 8 6 8 10 2 12 15 13 15 15
19 19 21 22 24 25 23 24 24 23 24 25 23 23 25 24 25 24 22 21 15 18 16 12 9 7 8 9 0 1 5 5 4 11 15 13 4 5 3 5 9 8 14 15 18 18 15
21 23 20 23 25 25 21 24 27 25 25 26 26 22 24 24 25 24 21 23 19 20 16 13 11 6 6 3 5 5 5 7 4 9 7 10 6 5 7 1 4 7 12 12 3 8 13
22 24 25 23 25 26 26 26 25 24 25 26 27 25 24 23 24 23 21 23 20 20 19 15 8 7 6 6 7 8 8 9 8 7 7 9 6 3 4 9 8 10 10 13 9 9 8
24 25 26 26 28 28 27 27 25 26 23 23 24 25 23 22 19 21 19 22 17 16 13 9 3 5 7 6 7 6 8 9 10 12 9 8 7 6 7 10 8 11 15 12 11 4 8
25 27 27 28 29 28 30 28 28 26 25 24 23 21 21 21 22 17 10 6 3 7 8 7 12 2 11 8 9 9 12 12 11 12 7 8 8 13 17 17 15 9 9 11 10 8 16
26 27 28 33 32 32 32 28 27 27 27 23 23 21 20 21 20 19 9 3 6 4 6 7 11 7 8 8 7 11 14 10 11 12 10 5 12 15 11 10 11 13 13 15 14 11 12
28 30 30 31 32 32 30 29 28 26 26 24 26 19 16 18 19 14 12 9 9 6 4 13 13 13 8 9 8 16 16 13 13 14 15 11 2 4 14 11 12 13 12 11 14 17 18
29 29 30 31 31 30 30 28 27 27 25 26 24 23 16 22 13 10 10 2 10 5 4 10 11 8 9 7 5 14 16 9 7 15 12 10 8 5 9 13 11 12 8 8 10 8 6
30 30 30 30 30 30 30 27 27 27 27 25 26 28 22 15 9 7 4 5 5 2 6 17 11 10 16 11 15 11 15 5 11 8 7 4 6 12 12 12 8 6 3 6 8 10 13
31 31 31 29 29 30 28 26 26 28 26 28 29 35 37 13 11 12 2 3 4 2 5 7 7 13 18 14 8 11 14 4 3 7 11 10 3 5 9 7 10 4 4 7 9 5 8
30 30 29 28 29 28 28 25 28 27 26 29 31 35 21 6 7 14 6 1 4 5 12 10 9 14 17 15 11 13 14 11 8 5 8 10 16 8 10 8 6 7 1 2 3 4 7
31 30 28 28 28 27 27 26 28 27 27 29 32 33 5 8 9 13 4 2 7 7 6 7 15 17 9 17 10 15 15 12 16 10 4 8 6 17 12 14 5 12 9 4 5 7 11
29 28 27 28 27 27 27 27 28 26 27 28 27 5 2 5 16 7 2 4 2 11 10 13 17 9 8 19 8 11 13 11 13 13 7 6 3 1 10 7 11 5 8 10 13 18 11
27 28 28 28 27 27 27 28 28 28 29 28 7 4 2 8 16 6 4 6 4 3 14 18 7 6 8 17 10 13 13 12 9 17 12 2 3 6 6 6 9 11 3 2 4 5 11
27 28 28 28 27 26 28 29 29 31 32 34 3 1 6 11 6 1 3 2 2 10 11 2 9 10 10 15 10 15 16 5 15 13 15 7 4 5 3 11 13 10 7 6 6 7 6
27 27 27 26 26 26 28 30 29 32 34 9 3 3 7 8 3 1 3 3 10 13 0 2 7 6 16 16 10 11 8 2 7 9 11 8 3 6 12 9 9 13 13 17 7 8 6
27 26 25 25 25 26 28 30 31 33 32 3 3 4 3 3 3 2 2 3 7 3 2 2 4 2 6 13 6 5 6 4 9 12 9 10 5 3 2 3 12 11 16 17 18 14 20
27 27 25 26 25 25 28 29 32 35 33 3 2 3 1 2 5 7 4 4 5 3 7 8 9 11 10 12 5 7 6 4 7 10 8 5 5 8 7 6 5 6 15 16 12 8 17
23 25 25 25 24 25 26 29 31 33 35 3 2 2 1 2 4 7 5 3 10 4 3 2 4 7 6 4 4 3 4 5 5 6 5 5 4 11 16 20 18 19 22 22 18 19 14
24 24 24 23 24 24 25 26 29 30 29 3 3 3 2 3 8 6 4 2 3 4 1 3 7 6 4 3 2 4 7 6 5 9 10 5 4 4 12 19 16 16 22 16 15 17 16
23 23 22 22 23 23 24 24 26 26 17 2 2 2 3 4 8 6 6 8 4 5 4 7 6 4 3 4 1 2 3 2 1 3 11 5 3 3 6 12 20 7 2 8 11 13 11
22 22 23 23 23 22 22 23 24 24 18 2 2 2 3 3 6 7 7 5 4 2 3 4 2 1 5 3 2 2 3 7 8 9 7 5 6 3 6 12 3 1 5 8 8 12 8
20 21 21 21 22 21 20 22 23 24 24 4 1 2 3 1 4 7 9 5 7 5 3 5 3 4 4 1 2 2 3 3 8 13 14 12 6 3 3 6 15 8 5 4 2 5 7
18 19 20 21 21 21 22 21 21 22 24 7 1 1 2 3 6 8 9 9 5 4 2 3 4 2 2 2 1 2 2 2 4 4 3 10 12 5 3 4 4 4 5 1 2 2 10
18 18 18 19 20 21 21 21 21 21 23 8 1 3 3 3 3 8 7 6 3 2 1 3 3 2 2 2 1 2 3 2 3 4 5 4 2 8 8 5 9 9 5 1 5 7 12
18 17 17 18 19 20 21 19 19 19 20 9 4 2 3 3 0 1 1 3 4 4 2 4 3 2 2 2 1 2 4 2 3 3 5 8 7 4 4 4 7 3 4 4 7 10 8
17 18 16 18 19 19 20 20 18 18 18 14 2 3 3 3 3 2 2 3 5 4 2 5 3 3 2 2 3 2 2 2 5 3 5 5 7 1 8 5 6 6 9 10 7 9 7
Wind_Direction
357 350 347 349 344 343 340 337 338 335 334 331 327 324 316 317 314 321 323 317 223 218 217 208 210 250 234 217 252 120 251 206 219 194 211 191 206 211 216 208 211 237 257 243 267 261 258
345 342 340 335 339 332 333 331 331 328 326 324 325 324 318 319 316 314 317 312 243 214 209 197 192 209 235 234 43 149 245 233 211 189 204 214 235 232 276 235 211 325 268 272 254 258 250
341 331 327 332 330 328 329 324 322 322 320 320 321 319 314 315 310 307 312 313 261 219 203 190 184 205 241 226 125 207 237 243 237 203 191 207 239 195 180 253 234 270 264 265 249 243 238
324 328 331 329 321 316 324 321 319 318 315 315 316 316 312 312 310 307 304 307 314 215 195 185 188 200 248 101 246 209 210 200 184 178 220 175 159 244 234 105 201 236 244 257 145 231 234
334 329 328 320 320 319 320 320 317 315 313 315 313 316 311 307 309 303 299 304 289 225 183 172 187 215 238 132 206 194 203 185 158 148 144 157 170 176 212 230 231 218 256 218 248 197 244
331 327 322 326 323 321 318 318 318 313 315 311 311 312 305 300 302 307 305 307 286 181 180 177 229 197 203 199 151 166 194 172 157 147 129 163 177 175 205 213 220 237 220 247 259 171 232
326 325 326 322 320 318 319 321 320 318 313 314 311 310 305 299 304 316 311 331 223 169 197 190 179 150 134 118 144 171 175 174 170 173 166 187 205 214 224 229 257 279 283 277 276 288 283
328 328 331 325 327 326 328 324 318 317 313 310 312 306 303 305 308 308 289 241 300 292 160 229 166 122 139 166 136 165 175 170 185 185 155 163 227 234 247 265 250 253 263 266 278 288 294
336 330 334 326 328 330 323 323 319 318 315 315 314 315 304 307 310 292 253 226 279 344 210 180 171 168 163 181 168 170 193 196 194 199 201 207 134 242 237 226 232 240 257 277 284 302 291
330 327 330 334 332 326 323 324 323 321 319 317 318 309 309 318 297 253 245 250 239 93 189 156 194 208 159 164 183 165 195 169 198 209 195 229 227 216 218 230 232 259 271 272 279 292 281
328 332 332 332 330 326 326 329 326 322 322 321 318 311 301 286 285 278 6 9 123 78 188 147 145 139 169 175 126 176 190 193 193 194 172 197 218 217 230 228 228 242 328 268 282 286 308
330 338 336 332 328 330 330 333 328 324 326 321 323 314 296 252 235 241 21 1 94 216 164 135 131 167 161 182 150 145 178 231 295 211 218 254 143 217 211 220 225 81 265 260 265 272 257
330 340 340 337 335 336 335 335 330 330 326 329 331 321 317 142 187 189 163 16 137 256 158 138 156 159 162 171 156 166 177 189 180 170 213 231 229 214 231 227 204 214 207 270 212 208 251
339 340 342 340 338 339 340 338 333 328 331 333 339 323 260 181 184 130 134 122 234 138 127 153 137 151 165 164 182 173 178 193 220 214 150 198 199 201 174 214 190 208 207 224 265 247 291
336 341 345 341 344 344 342 339 335 333 332 337 337 308 1 181 149 134 167 208 24 142 135 137 136 145 136 179 155 176 195 198 206 200 207 189 245 161 173 195 211 176 209 245 279 279 278
342 342 344 343 349 344 342 339 340 335 334 335 325 293 50 133 142 123 193 201 348 80 139 143 131 178 155 172 165 180 178 200 200 206 221 360 241 187 169 222 226 215 329 177 209 272 270
343 342 344 346 350 343 346 347 342 339 338 322 133 359 115 131 111 69 129 173 114 138 139 221 144 149 168 170 182 182 185 135 201 193 197 203 222 131 141 209 202 197 227 227 308 230 273
344 347 347 347 351 348 349 350 344 343 341 345 85 88 155 171 87 229 148 219 144 149 70 113 131 147 154 169 165 178 172 78 185 189 184 203 218 246 240 246 223 227 217 221 232 233 233
344 350 349 349 353 352 353 351 347 347 354 348 51 104 204 338 161 160 90 91 125 140 24 129 119 118 137 153 157 176 179 99 166 177 177 160 213 283 236 209 231 233 246 247 243 270 256
347 345 351 349 352 355 356 352 351 350 358 2 129 88 315 284 269 130 110 98 99 12 66 87 104 122 122 145 45 160 155 139 176 197 71 207 225 238 274 325 345 234 249 252 244 255 267
343 346 350 351 356 357 358 355 356 355 352 343 15 70 187 166 179 84 110 73 138 130 82 73 87 113 116 131 139 173 171 145 166 183 176 206 243 260 268 275 281 271 272 273 260 252 251
346 346 351 354 354 357 359 0 359 3 352 57 13 348 332 141 153 138 86 131 172 115 60 91 116 113 79 104 94 169 178 204 207 173 200 210 258 307 283 276 266 287 286 287 268 266 260
347 352 352 354 353 358 357 5 1 7 11 356 335 304 286 172 183 174 179 176 162 154 57 66 107 126 97 65 78 45 300 304 129 174 202 197 221 284 272 316 309 267 286 280 283 285 266
348 352 357 353 355 355 357 4 2 2 16 306 287 284 298 170 197 189 159 186 176 230 101 94 101 77 78 91 113 132 237 256 250 227 237 230 202 240 290 317 274 77 324 277 273 282 310
345 350 355 350 346 353 1 1 357 356 2 355 279 262 285 179 200 195 186 167 134 131 108 118 80 59 39 336 260 289 190 217 232 225 210 224 228 277 276 310 281 275 325 309 315 283 300
340 346 350 350 351 351 352 354 354 353 357 359 346 296 286 296 208 197 192 179 177 184 155 140 109 74 70 268 124 274 272 344 152 133 235 220 227 235 318 307 288 7 350 3 227 325 14
333 339 346 346 347 343 343 345 347 351 353 0 276 352 251 270 349 197 193 202 175 179 98 93 127 115 104 195 193 250 267 296 264 187 159 158 184 225 241 262 276 298 350 150 305 355 2
328 332 341 340 343 341 338 338 340 349 348 358 280 48 343 313 344 265 213 191 182 208 181 131 149 158 145 188 236 231 259 234 273 234 178 184 176 194 198 243 273 37 295 310 342 321 347
325 325 335 334 337 336 333 331 336 340 342 351 292 317 296 230 339 2 354 345 330 344 246 175 3 125 115 194 222 343 303 278 293 276 200 234 224 201 202 222 306 307 274 305 324 306 331